| time (UTC) | temp F | wind direction | speed MPH | gust MPH | rain 1hr in | rain 24hr in | rain mn in | humidity % | barometer mb |
| 20260831121531 | 64 | 202 | 0.0 | 0.0 | 0.00 | 0.00 | 0.00 | 96 | 1018.6 |
| 20260831120027 | 64 | 212 | 0.0 | 0.0 | 0.00 | 0.00 | 0.00 | 96 | 1018.6 |
| 20260831114529 | 64 | 212 | 0.0 | 0.0 | 0.00 | 0.00 | 0.00 | 96 | 1018.6 |
| 20260831113015 | 63 | 207 | 0.0 | 0.0 | 0.00 | 0.00 | 0.00 | 96 | 1018.6 |
| 20260831111512 | 63 | 188 | 0.0 | 0.0 | 0.00 | 0.00 | 0.00 | 96 | 1018.6 |
| 20260831110015 | 63 | 200 | 0.0 | 0.0 | 0.00 | 0.00 | 0.00 | 95 | 1018.5 |
| 20260831104525 | 63 | 200 | 0.0 | 0.0 | 0.00 | 0.00 | 0.00 | 95 | 1018.4 |
| 20260831103009 | 63 | 200 | 0.0 | 0.0 | 0.00 | 0.00 | 0.00 | 95 | 1018.2 |
| 20260831101509 | 63 | 200 | 0.0 | 0.0 | 0.00 | 0.00 | 0.00 | 95 | 1018.2 |
| 20260831100007 | 63 | 200 | 0.0 | 0.0 | 0.00 | 0.00 | 0.00 | 95 | 1018.2 |
| 20260831094508 | 63 | 200 | 0.0 | 0.0 | 0.00 | 0.00 | 0.00 | 95 | 1018.1 |
| 20260831093015 | 63 | 200 | 0.0 | 0.0 | 0.00 | 0.00 | 0.00 | 95 | 1018.2 |
| 20260831091506 | 63 | 200 | 0.0 | 0.0 | 0.00 | 0.00 | 0.00 | 94 | 1018.2 |
| 20260831090005 | 63 | 200 | 0.0 | 0.0 | 0.00 | 0.00 | 0.00 | 94 | 1018.3 |
| 20260831084504 | 63 | 155 | 0.0 | 0.0 | 0.00 | 0.00 | 0.00 | 94 | 1018.3 |
| 20260831083003 | 63 | 155 | 0.0 | 0.0 | 0.00 | 0.00 | 0.00 | 94 | 1018.3 |
| 20260831081505 | 63 | 125 | 0.0 | 0.0 | 0.00 | 0.00 | 0.00 | 94 | 1018.2 |
| 20260831080000 | 63 | 59 | 0.0 | 0.0 | 0.00 | 0.00 | 0.00 | 93 | 1018.1 |
| 20260831074607 | 63 | 59 | 0.0 | 0.0 | 0.00 | 0.00 | 0.00 | 93 | 1018.3 |
| 20260831073103 | 63 | 81 | 0.0 | 0.0 | 0.00 | 0.00 | 0.00 | 93 | 1018.2 |
| 20260831071608 | 63 | 47 | 0.0 | 0.0 | 0.00 | 0.00 | 0.00 | 92 | 1018.3 |
| 20260831070057 | 63 | 161 | 0.0 | 0.0 | 0.00 | 0.00 | 0.00 | 92 | 1018.3 |
| 20260831064557 | 63 | 161 | 0.0 | 0.0 | 0.00 | 0.00 | 0.00 | 92 | 1018.3 |
| 20260831063058 | 63 | 98 | 0.0 | 0.0 | 0.00 | 0.00 | 0.00 | 92 | 1018.4 |
| 20260831061556 | 63 | 113 | 0.0 | 0.0 | 0.00 | 0.00 | 0.00 | 91 | 1018.4 |
| 20260831060101 | 64 | 113 | 0.0 | 0.0 | 0.00 | 0.00 | 0.00 | 91 | 1018.5 |
| 20260831054551 | 64 | 67 | 0.0 | 0.0 | 0.00 | 0.00 | 0.00 | 91 | 1018.7 |
| 20260831053102 | 64 | 67 | 0.0 | 0.0 | 0.00 | 0.00 | 0.00 | 90 | 1018.8 |
| 20260831051550 | 64 | 54 | 0.0 | 0.0 | 0.00 | 0.00 | 0.00 | 91 | 1018.8 |
| 20260831050106 | 64 | 54 | 0.0 | 0.0 | 0.00 | 0.00 | 0.00 | 91 | 1018.9 |
| 20260831044549 | 64 | 54 | 0.0 | 0.0 | 0.00 | 0.00 | 0.00 | 91 | 1018.7 |
| 20260831043052 | 64 | 54 | 0.0 | 0.0 | 0.00 | 0.00 | 0.00 | 91 | 1018.7 |
| 20260831041557 | 64 | 54 | 0.0 | 0.0 | 0.00 | 0.00 | 0.00 | 90 | 1018.7 |
| 20260831040045 | 64 | 54 | 0.0 | 0.0 | 0.00 | 0.00 | 0.00 | 90 | 1018.7 |
| 20260831034545 | 64 | 54 | 0.0 | 0.0 | 0.00 | 0.00 | 0.00 | 90 | 1018.7 |
| 20260831033103 | 64 | 54 | 0.0 | 0.0 | 0.00 | 0.00 | 0.00 | 89 | 1018.9 |
| 20260831031551 | 64 | 54 | 0.0 | 0.0 | 0.00 | 0.00 | 0.00 | 89 | 1019.1 |
| 20260831030044 | 64 | 54 | 0.0 | 0.0 | 0.00 | 0.00 | 0.00 | 88 | 1018.9 |
| 20260831024542 | 64 | 54 | 0.0 | 0.0 | 0.00 | 0.00 | 0.00 | 87 | 1018.9 |
| 20260831023041 | 65 | 64 | 0.0 | 3.0 | 0.00 | 0.00 | 0.00 | 87 | 1018.9 |
| 20260831021545 | 65 | 61 | 2.0 | 5.0 | 0.00 | 0.00 | 0.00 | 87 | 1019.0 |
| 20260831020040 | 65 | 34 | 2.0 | 3.0 | 0.00 | 0.00 | 0.00 | 87 | 1018.9 |
| 20260831014541 | 65 | 67 | 1.0 | 3.0 | 0.00 | 0.00 | 0.00 | 86 | 1018.9 |
| 20260831013052 | 66 | 44 | 1.0 | 3.0 | 0.00 | 0.00 | 0.00 | 86 | 1019.0 |
| 20260831011539 | 66 | 42 | 1.0 | 5.0 | 0.00 | 0.00 | 0.00 | 85 | 1018.9 |
| 20260831010038 | 66 | 35 | 3.0 | 6.0 | 0.00 | 0.00 | 0.00 | 85 | 1018.9 |
| 20260831004543 | 66 | 17 | 2.0 | 5.0 | 0.00 | 0.00 | 0.00 | 85 | 1019.0 |
| 20260831003045 | 67 | 22 | 2.0 | 5.0 | 0.00 | 0.00 | 0.00 | 85 | 1018.5 |
| 20260831001538 | 67 | 30 | 1.0 | 4.0 | 0.00 | 0.00 | 0.00 | 87 | 1018.2 |
| 20260831000037 | 67 | 188 | 0.0 | 2.0 | 0.00 | 0.00 | 0.00 | 88 | 1018.0 |
| 20260830234540 | 67 | 188 | 0.0 | 1.0 | 0.00 | 0.00 | 0.00 | 87 | 1017.7 |
| 20260830233035 | 68 | 188 | 0.0 | 0.0 | 0.00 | 0.00 | 0.00 | 86 | 1017.7 |
| 20260830231535 | 68 | 188 | 0.0 | 0.0 | 0.00 | 0.00 | 0.00 | 85 | 1017.7 |
| 20260830230033 | 68 | 188 | 0.0 | 2.0 | 0.00 | 0.00 | 0.00 | 84 | 1017.7 |
| 20260830224533 | 69 | 269 | 0.0 | 2.0 | 0.00 | 0.00 | 0.00 | 82 | 1017.7 |
| 20260830223033 | 69 | 269 | 1.0 | 4.0 | 0.00 | 0.00 | 0.00 | 81 | 1017.7 |
| 20260830221533 | 69 | 271 | 1.0 | 3.0 | 0.00 | 0.00 | 0.00 | 81 | 1017.7 |
| 20260830220035 | 69 | 261 | 0.0 | 2.0 | 0.00 | 0.00 | 0.00 | 82 | 1017.7 |
| 20260830214531 | 69 | 304 | 0.0 | 1.0 | 0.00 | 0.00 | 0.00 | 82 | 1017.6 |
| 20260830213030 | 68 | 304 | 0.0 | 2.0 | 0.00 | 0.00 | 0.00 | 84 | 1017.7 |
| 20260830211530 | 68 | 304 | 0.0 | 3.0 | 0.00 | 0.00 | 0.00 | 83 | 1017.6 |
| 20260830210030 | 68 | 320 | 0.0 | 2.0 | 0.00 | 0.00 | 0.00 | 84 | 1017.8 |
| 20260830204529 | 68 | 315 | 1.0 | 3.0 | 0.00 | 0.00 | 0.00 | 84 | 1017.9 |
| 20260830203028 | 68 | 326 | 0.0 | 3.0 | 0.00 | 0.00 | 0.00 | 83 | 1017.8 |
| 20260830201527 | 69 | 346 | 4.0 | 9.0 | 0.00 | 0.00 | 0.00 | 80 | 1018.0 |
| 20260830200026 | 70 | 280 | 3.0 | 6.0 | 0.00 | 0.00 | 0.00 | 77 | 1017.9 |
| 20260830194526 | 71 | 333 | 3.0 | 9.0 | 0.00 | 0.00 | 0.00 | 74 | 1017.7 |
| 20260830193024 | 72 | 33 | 3.0 | 10.0 | 0.00 | 0.00 | 0.00 | 74 | 1017.7 |
| 20260830191524 | 73 | 302 | 5.0 | 9.0 | 0.00 | 0.00 | 0.00 | 72 | 1017.7 |
| 20260830190024 | 72 | 315 | 3.0 | 8.0 | 0.00 | 0.00 | 0.00 | 73 | 1017.7 |
| 20260830184522 | 73 | 228 | 5.0 | 11.0 | 0.00 | 0.00 | 0.00 | 70 | 1017.9 |
| 20260830183022 | 73 | 196 | 4.0 | 13.0 | 0.00 | 0.00 | 0.00 | 69 | 1017.8 |
| 20260830181522 | 74 | 226 | 1.0 | 10.0 | 0.00 | 0.00 | 0.00 | 68 | 1017.8 |
| 20260830180022 | 74 | 199 | 3.0 | 7.0 | 0.00 | 0.00 | 0.00 | 64 | 1017.7 |
| 20260830174520 | 75 | 206 | 3.0 | 9.0 | 0.00 | 0.00 | 0.00 | 62 | 1017.8 |
| 20260830173022 | 76 | 260 | 4.0 | 12.0 | 0.00 | 0.00 | 0.00 | 59 | 1017.9 |
| 20260830171519 | 77 | 250 | 5.0 | 14.0 | 0.00 | 0.00 | 0.00 | 58 | 1017.9 |
| 20260830170017 | 78 | 117 | 4.0 | 12.0 | 0.00 | 0.00 | 0.00 | 60 | 1017.9 |
| 20260830164516 | 78 | 259 | 2.0 | 9.0 | 0.00 | 0.00 | 0.00 | 62 | 1018.0 |
| 20260830163015 | 77 | 219 | 3.0 | 8.0 | 0.00 | 0.00 | 0.00 | 62 | 1018.1 |
| 20260830161515 | 76 | 84 | 1.0 | 9.0 | 0.00 | 0.00 | 0.00 | 62 | 1018.4 |
| 20260830160010 | 76 | 307 | 4.0 | 11.0 | 0.00 | 0.00 | 0.00 | 66 | 1018.7 |
| 20260830154503 | 75 | 236 | 4.0 | 10.0 | 0.00 | 0.00 | 0.00 | 68 | 1018.7 |
| 20260830153059 | 73 | 267 | 1.0 | 8.0 | 0.00 | 0.00 | 0.00 | 71 | 1018.8 |
| 20260830151557 | 72 | 138 | 2.0 | 10.0 | 0.00 | 0.00 | 0.00 | 73 | 1018.9 |
| 20260830150109 | 72 | 221 | 4.0 | 8.0 | 0.00 | 0.00 | 0.00 | 72 | 1018.9 |
| 20260830144551 | 70 | 247 | 4.0 | 9.0 | 0.00 | 0.00 | 0.00 | 73 | 1018.9 |
| 20260830143050 | 70 | 178 | 4.0 | 11.0 | 0.00 | 0.00 | 0.00 | 72 | 1018.8 |
| 20260830141547 | 69 | 292 | 3.0 | 10.0 | 0.00 | 0.00 | 0.00 | 75 | 1018.8 |
| 20260830140043 | 68 | 249 | 2.0 | 9.0 | 0.00 | 0.00 | 0.00 | 74 | 1018.7 |
| 20260830134543 | 68 | 205 | 3.0 | 8.0 | 0.00 | 0.00 | 0.00 | 74 | 1018.6 |
| 20260830133039 | 67 | 213 | 4.0 | 11.0 | 0.00 | 0.00 | 0.00 | 74 | 1018.7 |
| 20260830131543 | 65 | 220 | 2.0 | 7.0 | 0.00 | 0.00 | 0.00 | 78 | 1019.1 |
| 20260830130031 | 65 | 221 | 2.0 | 6.0 | 0.00 | 0.00 | 0.00 | 78 | 1019.1 |
| 20260830124529 | 64 | 174 | 2.0 | 5.0 | 0.00 | 0.00 | 0.00 | 79 | 1019.3 |
| 20260830123023 | 64 | 193 | 1.0 | 3.0 | 0.00 | 0.00 | 0.00 | 78 | 1019.5 |